# Tabular Observed and Forecast Hydrograph Information
#
# Location: East Walker River - Strosnider Ditch (EWSN2)
#
# File Generation Time: 05/06/2026 at 07:41 AM PDT
# Data Interval: 1 Hour
#
# Most Recent Date & Time of Maximum Observed: 05/05/2026 at 11:00 PM PDT
# Maximum Observed Stage: 3.62 Feet
# Maximum Observed Flow: 111 cfs
#
# Earliest Date & Time of Maximum Forecast: 05/07/2026 at 08:00 AM PDT
# Maximum Forecast Stage: 3.63 Feet
# Maximum Forecast Flow: 112 cfs
#
# OBSERVED
#
# Date & Time (Local) Stage (Feet) Flow (cfs) Trend Observed Status
# ---------------------------------------------------------------------------------
05/01/2026 07 AM PDT 3.62 111 Normal
05/01/2026 08 AM PDT 3.62 111 0 Normal
05/01/2026 09 AM PDT 3.62 111 0 Normal
05/01/2026 10 AM PDT 3.62 111 0 Normal
05/01/2026 11 AM PDT 3.62 111 0 Normal
05/01/2026 12 PM PDT 3.62 111 0 Normal
05/01/2026 01 PM PDT 3.62 111 0 Normal
05/01/2026 02 PM PDT 3.62 111 0 Normal
05/01/2026 03 PM PDT 3.62 111 0 Normal
05/01/2026 04 PM PDT 3.61 110 - Normal
05/01/2026 05 PM PDT 3.60 109 - Normal
05/01/2026 06 PM PDT 3.58 106 - Normal
05/01/2026 07 PM PDT 3.56 104 - Normal
05/01/2026 08 PM PDT 3.54 102 - Normal
05/01/2026 09 PM PDT 3.53 100 - Normal
05/01/2026 10 PM PDT 3.51 98 - Normal
05/01/2026 11 PM PDT 3.51 98 0 Normal
05/02/2026 12 AM PDT 3.50 97 - Normal
05/02/2026 01 AM PDT 3.50 97 0 Normal
05/02/2026 02 AM PDT 3.50 97 0 Normal
05/02/2026 03 AM PDT 3.50 97 0 Normal
05/02/2026 04 AM PDT 3.49 96 - Normal
05/02/2026 05 AM PDT 3.48 95 - Normal
05/02/2026 06 AM PDT 3.49 96 + Normal
05/02/2026 07 AM PDT 3.49 96 0 Normal
05/02/2026 08 AM PDT 3.49 96 0 Normal
05/02/2026 09 AM PDT 3.49 96 0 Normal
05/02/2026 10 AM PDT 3.49 96 0 Normal
05/02/2026 11 AM PDT 3.45 91 - Normal
05/02/2026 12 PM PDT 3.45 91 0 Normal
05/02/2026 01 PM PDT 3.44 90 - Normal
05/02/2026 02 PM PDT 3.43 89 - Normal
05/02/2026 03 PM PDT 3.46 92 + Normal
05/02/2026 04 PM PDT 3.47 94 + Normal
05/02/2026 05 PM PDT 3.46 92 - Normal
05/02/2026 06 PM PDT 3.46 92 0 Normal
05/02/2026 07 PM PDT 3.46 92 0 Normal
05/02/2026 08 PM PDT 3.45 91 - Normal
05/02/2026 09 PM PDT 3.46 92 + Normal
05/02/2026 10 PM PDT 3.45 91 - Normal
05/02/2026 11 PM PDT 3.45 91 0 Normal
05/03/2026 12 AM PDT 3.46 92 + Normal
05/03/2026 01 AM PDT 3.46 92 0 Normal
05/03/2026 02 AM PDT 3.46 92 0 Normal
05/03/2026 03 AM PDT 3.46 92 0 Normal
05/03/2026 04 AM PDT 3.46 92 0 Normal
05/03/2026 05 AM PDT 3.47 94 + Normal
05/03/2026 06 AM PDT 3.46 92 - Normal
05/03/2026 07 AM PDT 3.47 94 + Normal
05/03/2026 08 AM PDT 3.47 94 0 Normal
05/03/2026 09 AM PDT 3.46 92 - Normal
05/03/2026 10 AM PDT 3.47 94 + Normal
05/03/2026 11 AM PDT 3.46 92 - Normal
05/03/2026 12 PM PDT 3.44 90 - Normal
05/03/2026 01 PM PDT 3.45 91 + Normal
05/03/2026 02 PM PDT 3.43 89 - Normal
05/03/2026 03 PM PDT 3.42 88 - Normal
05/03/2026 04 PM PDT 3.45 91 + Normal
05/03/2026 05 PM PDT 3.46 92 + Normal
05/03/2026 06 PM PDT 3.47 94 + Normal
05/03/2026 07 PM PDT 3.47 94 0 Normal
05/03/2026 08 PM PDT 3.46 92 - Normal
05/03/2026 09 PM PDT 3.47 94 + Normal
05/03/2026 10 PM PDT 3.47 94 0 Normal
05/03/2026 11 PM PDT 3.47 94 0 Normal
05/04/2026 12 AM PDT 3.47 94 0 Normal
05/04/2026 01 AM PDT 3.47 94 0 Normal
05/04/2026 02 AM PDT 3.47 94 0 Normal
05/04/2026 03 AM PDT 3.48 95 + Normal
05/04/2026 04 AM PDT 3.48 95 0 Normal
05/04/2026 05 AM PDT 3.49 96 + Normal
05/04/2026 06 AM PDT 3.49 96 0 Normal
05/04/2026 07 AM PDT 3.49 96 0 Normal
05/04/2026 08 AM PDT 3.49 96 0 Normal
05/04/2026 09 AM PDT 3.50 97 + Normal
05/04/2026 10 AM PDT 3.49 96 - Normal
05/04/2026 11 AM PDT 3.49 96 0 Normal
05/04/2026 12 PM PDT 3.46 92 - Normal
05/04/2026 01 PM PDT 3.45 91 - Normal
05/04/2026 02 PM PDT 3.44 90 - Normal
05/04/2026 03 PM PDT 3.44 90 0 Normal
05/04/2026 04 PM PDT 3.48 95 + Normal
05/04/2026 05 PM PDT 3.50 97 + Normal
05/04/2026 06 PM PDT 3.50 97 0 Normal
05/04/2026 07 PM PDT 3.51 98 + Normal
05/04/2026 08 PM PDT 3.51 98 0 Normal
05/04/2026 09 PM PDT 3.51 98 0 Normal
05/04/2026 10 PM PDT 3.51 98 0 Normal
05/04/2026 11 PM PDT 3.52 99 + Normal
05/05/2026 12 AM PDT 3.53 100 + Normal
05/05/2026 01 AM PDT 3.54 102 + Normal
05/05/2026 02 AM PDT 3.54 102 0 Normal
05/05/2026 03 AM PDT 3.55 103 + Normal
05/05/2026 04 AM PDT 3.56 104 + Normal
05/05/2026 05 AM PDT 3.56 104 0 Normal
05/05/2026 06 AM PDT 3.56 104 0 Normal
05/05/2026 07 AM PDT 3.58 106 + Normal
05/05/2026 08 AM PDT 3.59 107 + Normal
05/05/2026 09 AM PDT 3.59 107 0 Normal
05/05/2026 10 AM PDT 3.58 106 - Normal
05/05/2026 11 AM PDT 3.57 105 - Normal
05/05/2026 12 PM PDT 3.56 104 - Normal
05/05/2026 01 PM PDT 3.56 104 0 Normal
05/05/2026 02 PM PDT 3.57 105 + Normal
05/05/2026 03 PM PDT 3.56 104 - Normal
05/05/2026 04 PM PDT 3.60 109 + Normal
05/05/2026 05 PM PDT 3.60 109 0 Normal
05/05/2026 06 PM PDT 3.62 111 + Normal
05/05/2026 07 PM PDT 3.62 111 0 Normal
05/05/2026 08 PM PDT 3.62 111 0 Normal
05/05/2026 09 PM PDT 3.62 111 0 Normal
05/05/2026 10 PM PDT 3.62 111 0 Normal
05/05/2026 11 PM PDT 3.62 111 0 Normal
05/06/2026 12 AM PDT 3.61 110 - Normal
05/06/2026 01 AM PDT 3.61 110 0 Normal
05/06/2026 02 AM PDT 3.60 109 - Normal
05/06/2026 03 AM PDT 3.59 107 - Normal
05/06/2026 04 AM PDT 3.58 106 - Normal
05/06/2026 05 AM PDT 3.58 106 0 Normal
05/06/2026 06 AM PDT 3.58 106 0 Normal
05/06/2026 07 AM PDT 3.58 106 0 Normal
#
# FORECAST
#
# Date & Time (Local) Stage (Feet) Flow (cfs) Trend Forecast Status
# ---------------------------------------------------------------------------------
05/06/2026 08 AM PDT 3.58 106 Normal
05/06/2026 09 AM PDT 3.58 106 0 Normal
05/06/2026 10 AM PDT 3.58 106 0 Normal
05/06/2026 11 AM PDT 3.57 105 - Normal
05/06/2026 12 PM PDT 3.57 105 0 Normal
05/06/2026 01 PM PDT 3.57 105 0 Normal
05/06/2026 02 PM PDT 3.56 104 - Normal
05/06/2026 03 PM PDT 3.56 104 0 Normal
05/06/2026 04 PM PDT 3.56 104 0 Normal
05/06/2026 05 PM PDT 3.56 104 0 Normal
05/06/2026 06 PM PDT 3.57 105 + Normal
05/06/2026 07 PM PDT 3.58 106 + Normal
05/06/2026 08 PM PDT 3.58 106 0 Normal
05/06/2026 09 PM PDT 3.59 107 + Normal
05/06/2026 10 PM PDT 3.60 109 + Normal
05/06/2026 11 PM PDT 3.60 109 0 Normal
05/07/2026 12 AM PDT 3.61 110 + Normal
05/07/2026 01 AM PDT 3.61 110 0 Normal
05/07/2026 02 AM PDT 3.62 111 + Normal
05/07/2026 03 AM PDT 3.62 111 0 Normal
05/07/2026 04 AM PDT 3.62 111 0 Normal
05/07/2026 05 AM PDT 3.62 111 0 Normal
05/07/2026 06 AM PDT 3.62 111 0 Normal
05/07/2026 07 AM PDT 3.62 111 0 Normal
05/07/2026 08 AM PDT 3.63 112 + Normal
05/07/2026 09 AM PDT 3.63 112 0 Normal
05/07/2026 10 AM PDT 3.63 112 0 Normal
05/07/2026 11 AM PDT 3.63 112 0 Normal
05/07/2026 12 PM PDT 3.63 112 0 Normal
05/07/2026 01 PM PDT 3.63 112 0 Normal
05/07/2026 02 PM PDT 3.63 112 0 Normal
05/07/2026 03 PM PDT 3.63 112 0 Normal
05/07/2026 04 PM PDT 3.63 112 0 Normal
05/07/2026 05 PM PDT 3.62 111 - Normal
05/07/2026 06 PM PDT 3.62 111 0 Normal
05/07/2026 07 PM PDT 3.62 111 0 Normal
05/07/2026 08 PM PDT 3.62 111 0 Normal
05/07/2026 09 PM PDT 3.62 111 0 Normal
05/07/2026 10 PM PDT 3.62 111 0 Normal
05/07/2026 11 PM PDT 3.62 111 0 Normal
05/08/2026 12 AM PDT 3.62 111 0 Normal
05/08/2026 01 AM PDT 3.62 111 0 Normal
05/08/2026 02 AM PDT 3.62 111 0 Normal
05/08/2026 03 AM PDT 3.62 111 0 Normal
05/08/2026 04 AM PDT 3.62 111 0 Normal
05/08/2026 05 AM PDT 3.62 111 0 Normal
05/08/2026 06 AM PDT 3.62 111 0 Normal
05/08/2026 07 AM PDT 3.62 111 0 Normal
05/08/2026 08 AM PDT 3.62 111 0 Normal
05/08/2026 09 AM PDT 3.62 111 0 Normal
05/08/2026 10 AM PDT 3.62 111 0 Normal
05/08/2026 11 AM PDT 3.61 110 - Normal
05/08/2026 12 PM PDT 3.61 110 0 Normal
05/08/2026 01 PM PDT 3.61 110 0 Normal
05/08/2026 02 PM PDT 3.61 110 0 Normal
05/08/2026 03 PM PDT 3.61 110 0 Normal
05/08/2026 04 PM PDT 3.61 110 0 Normal
05/08/2026 05 PM PDT 3.61 110 0 Normal
05/08/2026 06 PM PDT 3.61 110 0 Normal
05/08/2026 07 PM PDT 3.61 110 0 Normal
05/08/2026 08 PM PDT 3.61 110 0 Normal
05/08/2026 09 PM PDT 3.61 110 0 Normal
05/08/2026 10 PM PDT 3.61 110 0 Normal
05/08/2026 11 PM PDT 3.61 110 0 Normal
05/09/2026 12 AM PDT 3.61 110 0 Normal
05/09/2026 01 AM PDT 3.61 110 0 Normal
05/09/2026 02 AM PDT 3.61 110 0 Normal
05/09/2026 03 AM PDT 3.61 110 0 Normal
05/09/2026 04 AM PDT 3.61 110 0 Normal
05/09/2026 05 AM PDT 3.61 110 0 Normal
05/09/2026 06 AM PDT 3.61 110 0 Normal
05/09/2026 07 AM PDT 3.61 110 0 Normal
05/09/2026 08 AM PDT 3.61 110 0 Normal
05/09/2026 09 AM PDT 3.61 110 0 Normal
05/09/2026 10 AM PDT 3.61 110 0 Normal
05/09/2026 11 AM PDT 3.61 110 0 Normal
05/09/2026 12 PM PDT 3.61 110 0 Normal
05/09/2026 01 PM PDT 3.61 110 0 Normal
05/09/2026 02 PM PDT 3.61 110 0 Normal
05/09/2026 03 PM PDT 3.61 110 0 Normal
05/09/2026 04 PM PDT 3.61 110 0 Normal
05/09/2026 05 PM PDT 3.61 110 0 Normal
05/09/2026 06 PM PDT 3.61 110 0 Normal
05/09/2026 07 PM PDT 3.61 110 0 Normal
05/09/2026 08 PM PDT 3.61 110 0 Normal
05/09/2026 09 PM PDT 3.61 110 0 Normal
05/09/2026 10 PM PDT 3.61 110 0 Normal
05/09/2026 11 PM PDT 3.61 110 0 Normal
05/10/2026 12 AM PDT 3.61 110 0 Normal
05/10/2026 01 AM PDT 3.61 110 0 Normal
05/10/2026 02 AM PDT 3.61 110 0 Normal
05/10/2026 03 AM PDT 3.61 110 0 Normal
05/10/2026 04 AM PDT 3.61 110 0 Normal
05/10/2026 05 AM PDT 3.61 110 0 Normal
05/10/2026 06 AM PDT 3.61 110 0 Normal
05/10/2026 07 AM PDT 3.61 110 0 Normal
05/10/2026 08 AM PDT 3.61 110 0 Normal
05/10/2026 09 AM PDT 3.60 109 - Normal
05/10/2026 10 AM PDT 3.60 109 0 Normal
05/10/2026 11 AM PDT 3.60 109 0 Normal
05/10/2026 12 PM PDT 3.60 109 0 Normal
05/10/2026 01 PM PDT 3.60 109 0 Normal
05/10/2026 02 PM PDT 3.60 109 0 Normal
05/10/2026 03 PM PDT 3.60 109 0 Normal
05/10/2026 04 PM PDT 3.60 109 0 Normal
05/10/2026 05 PM PDT 3.60 109 0 Normal
05/10/2026 06 PM PDT 3.60 109 0 Normal
05/10/2026 07 PM PDT 3.60 109 0 Normal
05/10/2026 08 PM PDT 3.60 109 0 Normal
05/10/2026 09 PM PDT 3.60 109 0 Normal
05/10/2026 10 PM PDT 3.60 109 0 Normal
05/10/2026 11 PM PDT 3.60 109 0 Normal
05/11/2026 12 AM PDT 3.60 109 0 Normal
05/11/2026 01 AM PDT 3.60 109 0 Normal
05/11/2026 02 AM PDT 3.60 109 0 Normal
05/11/2026 03 AM PDT 3.60 109 0 Normal
05/11/2026 04 AM PDT 3.60 109 0 Normal
05/11/2026 05 AM PDT 3.60 109 0 Normal
#
# NOTE 1: Stages are rounded to the nearest hundredth (.01) of a foot.
# NOTE 2: Flows are rounded to the nearest (1) cfs.
# NOTE 3: Trends are determined using hourly change in unrounded stage and flow.
# NOTE 4: Maximum Values are determined using unrounded stage and flow.
|